Location: Caledonia
(42.3690°N, 88.8930°W)
Time: 14:33:38
(UTC-06:00)

Hubble Space Telescope - Visible Passes

Search period start: 09 February 2016 00:00
Search period end: 19 February 2016 00:00
Orbit: 540 x 544 km, 28.5° (Epoch: 09 February)

Date Brightness Start Highest point End Pass type
(mag) Time Alt. Az. Time Alt. Az. Time Alt. Az.
14 Feb 3.3 18:39:31 10° S 18:40:15 10° S 18:40:59 10° SSE visible
15 Feb 3.3 18:29:25 10° SSW 18:30:39 11° S 18:31:54 10° SSE visible
16 Feb 3.3 18:19:36 10° SSW 18:21:04 12° S 18:22:32 10° SSE visible
17 Feb 3.3 18:09:56 10° SSW 18:11:28 12° S 18:13:01 10° SSE visible
18 Feb 3.3 18:00:22 10° SSW 18:01:53 12° S 18:03:23 10° SSE visible
